EW0941 Weather Reports


time (UTC)temp
C
wind
direction
speed
KPH
gust
KPH
rain 1hr
cm
rain 24hr
cm
rain mn
cm
humidity
%
barometer
mb
20260506002555 15 263 0.0 0.0 0.00 0.00 0.00 75 1007.4
20260506002056 15 263 0.0 0.0 0.00 0.00 0.00 75 1007.1
20260506001556 15 263 0.0 0.0 0.00 0.00 0.00 74 1006.9
20260506001054 15 263 0.0 0.0 0.00 0.00 0.00 74 1006.6
20260506000555 15 263 0.0 0.0 0.00 0.00 0.00 74 1006.4
20260506000054 15 263 0.0 0.0 0.00 0.00 0.00 73 1006.3
20260505235553 15 263 0.0 0.0 0.00 0.00 0.00 73 1006.7
20260505235053 15 263 0.0 0.0 0.00 0.00 0.00 73 1006.9
20260505234613 16 263 0.0 0.0 0.00 0.00 0.00 73 1007.0
20260505234052 16 263 0.0 0.0 0.00 0.00 0.00 72 1006.9
20260505233552 15 263 0.0 0.0 0.00 0.00 0.00 72 1006.9
20260505233052 15 263 0.0 0.0 0.00 0.00 0.00 73 1006.7
20260505232552 15 263 0.0 0.0 0.00 0.00 0.00 73 1006.8
20260505232052 15 268 0.0 0.0 0.00 0.00 0.00 73 1006.8
20260505231552 15 268 0.0 1.6 0.00 0.00 0.00 73 1006.7
20260505231051 15 312 0.0 1.6 0.00 0.00 0.00 73 1006.8
20260505230551 15 205 0.0 1.6 0.00 0.00 0.00 73 1006.9
20260505230053 15 234 0.0 1.6 0.00 0.00 0.00 73 1005.5
20260505225552 15 64 0.0 1.6 0.00 0.00 0.00 74 1005.1
20260505225052 15 263 0.0 1.6 0.00 0.00 0.00 74 1005.1
20260505224551 15 166 0.0 1.6 0.00 0.00 0.00 74 1005.0
20260505224050 15 180 0.0 0.0 0.00 0.00 0.00 74 1005.0
20260505223550 15 159 0.0 0.0 0.00 0.00 0.00 73 1005.1
20260505223100 15 279 0.0 0.0 0.00 0.00 0.00 73 1005.1
20260505222550 15 142 0.0 0.0 0.00 0.00 0.00 73 1005.0
20260505222050 15 138 0.0 1.6 0.00 0.00 0.00 73 1004.7
20260505221604 15 142 0.0 1.6 0.00 0.00 0.00 73 1004.7
20260505221049 15 240 0.0 0.0 0.00 0.00 0.00 73 1004.7
20260505220553 15 271 0.0 0.0 0.00 0.00 0.00 73 1004.7
20260505220115 15 251 0.0 0.0 0.00 0.00 0.00 73 1004.7
20260505215549 15 224 0.0 0.0 0.00 0.00 0.00 73 1004.7
20260505215049 15 118 0.0 1.6 0.00 0.00 0.00 73 1004.5
20260505214604 15 164 0.0 1.6 0.00 0.00 0.00 73 1004.6
20260505214049 15 266 0.0 1.6 0.00 0.00 0.00 73 1004.6
20260505213551 15 209 0.0 1.6 0.00 0.00 0.00 72 1004.6
20260505213049 15 80 0.0 1.6 0.00 0.00 0.00 73 1004.5
20260505212548 15 195 0.0 0.0 0.00 0.00 0.00 72 1004.4
20260505212048 15 135 0.0 0.0 0.00 0.00 0.00 72 1004.5
20260505211558 16 261 0.0 0.0 0.00 0.00 0.00 72 1004.5
20260505211047 16 127 0.0 0.0 0.00 0.00 0.00 71 1004.2
20260505210552 16 184 0.0 0.0 0.00 0.00 0.00 71 1004.3
20260505210047 16 302 0.0 0.0 0.00 0.00 0.00 71 1004.4
20260505205547 16 250 0.0 1.6 0.00 0.00 0.00 71 1004.4
20260505205047 16 113 0.0 1.6 0.00 0.00 0.00 72 1004.4
20260505204546 16 84 0.0 1.6 0.00 0.00 0.00 72 1004.5
20260505204045 16 284 0.0 1.6 0.00 0.00 0.00 72 1004.4
20260505203544 16 134 0.0 1.6 0.00 0.00 0.00 72 1004.5
20260505203046 16 228 0.0 1.6 0.00 0.00 0.00 72 1004.4
20260505202545 16 245 0.0 0.0 0.00 0.00 0.00 72 1004.4
20260505202043 16 114 0.0 1.6 0.00 0.00 0.00 72 1004.5
20260505201543 16 178 0.0 1.6 0.00 0.00 0.00 72 1004.6
20260505201042 16 126 0.0 1.6 0.00 0.00 0.00 71 1004.7
20260505200542 16 228 0.0 1.6 0.00 0.00 0.00 72 1004.7
20260505200046 16 242 0.0 1.6 0.00 0.00 0.00 71 1004.7
20260505195540 16 271 0.0 0.0 0.00 0.00 0.00 71 1004.8
20260505195040 16 313 0.0 1.6 0.00 0.00 0.00 70 1005.0
20260505194540 16 160 0.0 1.6 0.00 0.00 0.00 70 1004.8
20260505194038 16 243 0.0 1.6 0.00 0.00 0.00 71 1004.9
20260505193537 16 198 0.0 1.6 0.00 0.00 0.00 71 1005.0
20260505193037 16 84 0.0 1.6 0.00 0.00 0.00 69 1005.0
20260505192536 17 69 0.0 1.6 0.00 0.00 0.00 69 1005.1
20260505192036 17 229 0.0 1.6 0.00 0.00 0.00 67 1005.1
20260505191536 17 65 0.0 0.0 0.00 0.00 0.00 67 1005.4
20260505191035 17 132 0.0 0.0 0.00 0.00 0.00 67 1005.5
20260505190536 17 319 0.0 0.0 0.00 0.00 0.00 66 1005.4
20260505190046 18 241 0.0 0.0 0.00 0.00 0.00 66 1005.4
20260505185533 18 128 0.0 1.6 0.00 0.00 0.00 68 1005.5
20260505185033 18 267 0.0 1.6 0.00 0.00 0.00 67 1005.5
20260505184534 17 80 0.0 0.0 0.00 0.00 0.00 67 1005.6
20260505184032 17 245 0.0 1.6 0.00 0.00 0.00 69 1005.7
20260505183531 17 238 0.0 1.6 0.00 0.00 0.00 68 1005.6
20260505183042 17 5 0.0 3.2 0.00 0.00 0.00 68 1005.8
20260505182531 17 277 0.0 3.2 0.00 0.00 0.00 66 1005.9
20260505182031 18 91 0.0 1.6 0.00 0.00 0.00 66 1005.9
20260505181531 18 228 0.0 0.0 0.00 0.00 0.00 66 1006.0
20260505181030 18 242 0.0 0.0 0.00 0.00 0.00 68 1005.8
20260505180530 18 240 0.0 1.6 0.00 0.00 0.00 67 1005.8
20260505180029 17 269 0.0 1.6 0.00 0.00 0.00 68 1005.8
20260505175529 18 158 0.0 1.6 0.00 0.00 0.00 66 1005.9
20260505175028 17 268 0.0 1.6 0.00 0.00 0.00 70 1006.0
20260505174527 17 115 0.0 1.6 0.00 0.00 0.00 68 1006.1
20260505174025 17 229 0.0 1.6 0.00 0.00 0.00 67 1006.3
20260505173528 18 145 0.0 0.0 0.00 0.00 0.00 67 1006.4
20260505173027 18 221 0.0 0.0 0.00 0.00 0.00 66 1006.4
20260505172524 18 197 0.0 0.0 0.00 0.00 0.00 65 1006.5
20260505172023 19 206 0.0 0.0 0.00 0.00 0.00 65 1006.7
20260505171523 18 175 0.0 0.0 0.00 0.00 0.00 66 1006.6
20260505171025 18 185 0.0 0.0 0.00 0.00 0.00 65 1006.6
20260505170520 18 244 0.0 0.0 0.00 0.00 0.00 67 1006.7
20260505170020 18 257 0.0 0.0 0.00 0.00 0.00 66 1006.9
20260505165520 18 198 0.0 0.0 0.00 0.00 0.00 66 1006.9
20260505165019 18 150 0.0 0.0 0.00 0.00 0.00 67 1007.0
20260505164519 18 249 0.0 1.6 0.00 0.00 0.00 65 1007.0
20260505164017 18 71 0.0 1.6 0.00 0.00 0.00 66 1007.2
20260505163516 18 178 0.0 0.0 0.00 0.00 0.00 65 1007.2
20260505163017 18 246 0.0 0.0 0.00 0.00 0.00 64 1007.3
20260505162516 18 140 0.0 1.6 0.00 0.00 0.00 67 1007.3
20260505162016 18 178 0.0 1.6 0.00 0.00 0.00 65 1007.2
20260505161515 18 130 0.0 0.0 0.00 0.00 0.00 65 1007.3
20260505161015 18 279 0.0 0.0 0.00 0.00 0.00 66 1007.5
20260505160513 18 173 0.0 0.0 0.00 0.00 0.00 67 1007.5
20260505153004 16 145 0.0 0.0 0.00 0.00 0.00 73 1008.2
20260505152502 15 183 0.0 0.0 0.00 0.00 0.00 74 1008.3
20260505152002 15 160 0.0 1.6 0.00 0.00 0.00 75 1008.4
20260505151503 15 120 0.0 1.6 0.00 0.00 0.00 75 1008.6
20260505151100 14 273 0.0 0.0 0.00 0.00 0.00 78 1008.5
20260505151001 14 274 0.0 0.0 0.00 0.00 0.00 78 1008.6
20260505150602 14 178 0.0 0.0 0.00 0.00 0.00 77 1008.5
20260505140556 14 207 0.0 0.0 0.00 0.00 0.00 73 1008.0
20260505124553 12 209 0.0 0.0 0.00 0.00 0.00 78 1008.2
20260505124047 12 199 0.0 0.0 0.00 0.00 0.00 78 1008.2
20260505123544 12 175 0.0 0.0 0.00 0.00 0.00 78 1008.2
20260505123044 12 171 0.0 0.0 0.00 0.00 0.00 80 1008.3
20260505122543 12 171 0.0 0.0 0.00 0.00 0.00 79 1008.3
20260505122043 12 190 0.0 0.0 0.00 0.00 0.00 80 1008.3
20260505121544 11 210 0.0 0.0 0.00 0.00 0.00 80 1008.4
20260505121043 11 144 0.0 0.0 0.00 0.00 0.00 81 1008.4
20260505120543 11 144 0.0 0.0 0.00 0.00 0.00 81 1008.4
20260505120050 11 142 0.0 0.0 0.00 0.00 0.00 81 1008.5
20260505115544 11 132 0.0 0.0 0.00 0.00 0.00 81 1008.6
20260505115042 11 189 0.0 0.0 0.00 0.00 0.00 81 1008.6
20260505114546 11 188 0.0 0.0 0.00 0.00 0.00 83 1008.8
20260505114040 10 179 0.0 0.0 0.00 0.00 0.00 83 1008.7
20260505113544 10 179 0.0 0.0 0.00 0.00 0.00 84 1008.7
20260505113041 10 164 0.0 0.0 0.00 0.00 0.00 86 1008.6
20260505112543 10 164 0.0 0.0 0.00 0.00 0.00 86 1008.6
20260505112041 9 164 0.0 0.0 0.00 0.00 0.00 88 1008.6
20260505111540 8 164 0.0 0.0 0.00 0.00 0.00 89 1008.7
20260505111039 8 164 0.0 0.0 0.00 0.00 0.00 90 1008.6
20260505110542 8 164 0.0 0.0 0.00 0.00 0.00 91 1008.7
20260505102036 6 209 0.0 0.0 0.00 0.00 0.00 91 1008.5
20260505101542 6 209 0.0 0.0 0.00 0.00 0.00 91 1008.5
20260505101040 6 209 0.0 0.0 0.00 0.00 0.00 91 1008.6
20260505100537 6 209 0.0 0.0 0.00 0.00 0.00 90 1008.6
20260505100039 6 209 0.0 0.0 0.00 0.00 0.00 90 1008.5
20260505095536 6 209 0.0 0.0 0.00 0.00 0.00 90 1008.5
20260505095035 6 209 0.0 0.0 0.00 0.00 0.00 90 1008.5
20260505094534 6 209 0.0 0.0 0.00 0.00 0.00 90 1008.4
20260505094034 6 209 0.0 0.0 0.00 0.00 0.00 90 1008.5
20260505093534 6 209 0.0 0.0 0.00 0.00 0.00 90 1008.5
20260505093038 6 209 0.0 0.0 0.00 0.00 0.00 90 1008.5
20260505092535 6 209 0.0 0.0 0.00 0.00 0.00 90 1008.5
20260505092033 6 209 0.0 0.0 0.00 0.00 0.00 90 1008.5
20260505091534 6 209 0.0 0.0 0.00 0.00 0.00 90 1008.5
20260505091033 7 209 0.0 0.0 0.00 0.00 0.00 90 1008.5
20260505090532 7 209 0.0 0.0 0.00 0.00 0.00 90 1008.6
20260505090035 7 209 0.0 0.0 0.00 0.00 0.00 89 1008.6
20260505085532 7 209 0.0 0.0 0.00 0.00 0.00 89 1008.6
20260505085032 7 209 0.0 0.0 0.00 0.00 0.00 89 1008.7
20260505084541 7 209 0.0 0.0 0.00 0.00 0.00 89 1008.7
20260505084031 7 209 0.0 0.0 0.00 0.00 0.00 89 1008.7
20260505083531 7 209 0.0 0.0 0.00 0.00 0.00 89 1008.7
20260505083030 7 209 0.0 0.0 0.00 0.00 0.00 88 1008.7
20260505082530 7 209 0.0 0.0 0.00 0.00 0.00 88 1008.7
20260505082030 7 209 0.0 0.0 0.00 0.00 0.00 87 1008.7
20260505081528 7 209 0.0 0.0 0.00 0.00 0.00 87 1008.7
20260505081027 7 209 0.0 0.0 0.00 0.00 0.00 87 1008.7
20260505080525 7 209 0.0 0.0 0.00 0.00 0.00 87 1008.8
20260505080030 7 209 0.0 0.0 0.00 0.00 0.00 87 1008.8
20260505075525 7 209 0.0 0.0 0.00 0.00 0.00 86 1008.8
20260505075027 7 209 0.0 0.0 0.00 0.00 0.00 86 1008.8
20260505074523 8 209 0.0 0.0 0.00 0.00 0.00 85 1008.8
20260505074022 8 209 0.0 0.0 0.00 0.00 0.00 85 1008.8
20260505073521 8 209 0.0 0.0 0.00 0.00 0.00 84 1008.7
20260505073032 8 209 0.0 0.0 0.00 0.00 0.00 84 1008.7
20260505072520 8 209 0.0 0.0 0.00 0.00 0.00 84 1008.7
20260505072018 8 209 0.0 0.0 0.00 0.00 0.00 83 1008.7
20260505071518 8 209 0.0 0.0 0.00 0.00 0.00 83 1008.7
20260505071019 8 209 0.0 0.0 0.00 0.00 0.00 83 1008.7
20260505070517 8 209 0.0 0.0 0.00 0.00 0.00 83 1008.7
20260505070029 8 209 0.0 0.0 0.00 0.00 0.00 83 1008.6
20260505065517 8 209 0.0 0.0 0.00 0.00 0.00 83 1008.6
20260505065017 8 209 0.0 0.0 0.00 0.00 0.00 83 1008.6
20260505064515 8 209 0.0 0.0 0.00 0.00 0.00 82 1008.6
20260505064014 9 209 0.0 0.0 0.00 0.00 0.00 82 1008.6
20260505063513 9 209 0.0 0.0 0.00 0.00 0.00 82 1008.5
20260505063014 9 209 0.0 0.0 0.00 0.00 0.00 81 1008.5
20260505062512 9 209 0.0 0.0 0.00 0.00 0.00 81 1008.6
20260505062010 9 209 0.0 0.0 0.00 0.00 0.00 80 1008.6
20260505061510 10 209 0.0 0.0 0.00 0.00 0.00 79 1008.6
20260505061010 10 209 0.0 0.0 0.00 0.00 0.00 79 1008.7
20260505060510 10 209 0.0 0.0 0.00 0.00 0.00 78 1008.6
20260505060007 10 209 0.0 0.0 0.00 0.00 0.00 77 1008.6
20260505055507 10 209 0.0 0.0 0.00 0.00 0.00 76 1008.6
20260505055007 10 209 0.0 0.0 0.00 0.00 0.00 76 1008.6
20260505054506 11 209 0.0 0.0 0.00 0.00 0.00 75 1008.5
20260505054005 11 209 0.0 0.0 0.00 0.00 0.00 74 1008.6
20260505053506 11 209 0.0 0.0 0.00 0.00 0.00 73 1008.6
20260505053005 11 209 0.0 0.0 0.00 0.00 0.00 72 1008.5
20260505052503 11 209 0.0 0.0 0.00 0.00 0.00 71 1008.4
20260505052007 11 209 0.0 0.0 0.00 0.00 0.00 70 1008.3
20260505051503 12 209 0.0 0.0 0.00 0.00 0.00 70 1008.3
20260505051004 12 209 0.0 0.0 0.00 0.00 0.00 69 1008.3
20260505050504 12 209 0.0 0.0 0.00 0.00 0.00 69 1008.3
20260505041557 10 191 0.0 0.0 0.00 0.00 0.00 76 1007.9
20260505041054 10 191 0.0 0.0 0.00 0.00 0.00 77 1007.8
20260505040550 10 191 0.0 0.0 0.00 0.00 0.00 77 1007.8
20260505040053 10 191 0.0 0.0 0.00 0.00 0.00 78 1007.7
20260505035548 10 175 0.0 0.0 0.00 0.00 0.00 79 1007.6
20260505035053 10 175 0.0 0.0 0.00 0.00 0.00 80 1007.6
20260505034548 10 175 0.0 0.0 0.00 0.00 0.00 80 1007.7
20260505034052 9 175 0.0 0.0 0.00 0.00 0.00 81 1007.7
20260505033547 9 175 0.0 0.0 0.00 0.00 0.00 82 1007.6
20260505033048 9 175 0.0 0.0 0.00 0.00 0.00 83 1007.7
20260505032548 8 173 0.0 0.0 0.00 0.00 0.00 84 1007.7
20260505032049 8 173 0.0 0.0 0.00 0.00 0.00 84 1007.7
20260505031555 8 173 0.0 0.0 0.00 0.00 0.00 84 1007.7
20260505031046 8 173 0.0 0.0 0.00 0.00 0.00 84 1007.7
20260505030546 8 173 0.0 0.0 0.00 0.00 0.00 84 1007.6
20260505030046 8 173 0.0 0.0 0.00 0.00 0.00 83 1007.6
20260505025546 8 173 0.0 0.0 0.00 0.00 0.00 83 1007.6
20260505025045 8 173 0.0 0.0 0.00 0.00 0.00 83 1007.6
20260505024556 8 173 0.0 0.0 0.00 0.00 0.00 83 1007.7
20260505024044 8 173 0.0 0.0 0.00 0.00 0.00 82 1007.6
20260505023644 9 173 0.0 0.0 0.00 0.00 0.00 82 1007.7
20260505023044 9 173 0.0 0.0 0.00 0.00 0.00 82 1007.7
20260505022544 9 173 0.0 0.0 0.00 0.00 0.00 81 1007.6
20260505022045 9 173 0.0 0.0 0.00 0.00 0.00 81 1007.7
20260505021544 9 173 0.0 0.0 0.00 0.00 0.00 81 1007.7
20260505021043 9 173 0.0 0.0 0.00 0.00 0.00 81 1007.6
20260505020543 9 173 0.0 0.0 0.00 0.00 0.00 81 1007.6
20260505020043 9 173 0.0 0.0 0.00 0.00 0.00 81 1007.6
20260505015548 9 173 0.0 0.0 0.00 0.00 0.00 80 1007.7
20260505015043 9 173 0.0 0.0 0.00 0.00 0.00 80 1007.6
20260505014601 9 173 0.0 0.0 0.00 0.00 0.00 79 1007.6
20260505014042 9 173 0.0 0.0 0.00 0.00 0.00 79 1007.6
20260505013541 10 173 0.0 0.0 0.00 0.00 0.00 79 1007.5
20260505013042 10 173 0.0 0.0 0.00 0.00 0.00 78 1007.3
20260505012542 10 173 0.0 0.0 0.00 0.00 0.00 77 1007.3
20260505012043 10 173 0.0 0.0 0.00 0.00 0.00 77 1007.3
20260505011553 10 173 0.0 0.0 0.00 0.00 0.00 76 1007.2
20260505011041 10 173 0.0 0.0 0.00 0.00 0.00 76 1007.2
20260505010541 10 173 0.0 0.0 0.00 0.00 0.00 75 1007.1
20260505010041 10 173 0.0 0.0 0.00 0.00 0.00 75 1007.0
20260505005541 10 173 0.0 0.0 0.00 0.00 0.00 74 1007.0
20260505005041 11 173 0.0 0.0 0.00 0.00 0.00 73 1006.9
20260505004542 11 173 0.0 0.0 0.00 0.00 0.00 72 1006.9
20260505004039 11 173 0.0 0.0 0.00 0.00 0.00 71 1006.8
20260505003543 11 173 0.0 0.0 0.00 0.00 0.00 70 1006.7